Location: Brede
(50.9167°N, 0.6000°E)
Time: 08:57:08
(UTC+00:00)

Tiros 1 - Pass Details

Date: 26 November 2020
Orbit: 630 x 663 km, 48.4° (Epoch: 16 January)

Event Time Altitude Azimuth Distance (km) Brightness Sun altitude
Rises 18:57:14 0° 264° (W) 2,987 11.8 -27.5°
Reaches altitude 10° 18:59:36 10° 261° (W) 2,071 10.7 -27.9°
Enters shadow 19:03:18 50° 237° (WSW) 834 7.9 -28.5°
